Regional Weather Roundup
Issued by NWS

Home | Current Version | Previous Version | Text Only | Print | Product List | Glossary On
Versions: 1 2 3 4 5 6 7 8 9 10 11 12 13 14 15 16 17 18 19 20 21 22 23 24 25 26 27 28 29 30 31 32 33 34 35 36 37 38 39 40 41 42 43 44 45 46 47 48 49 50
000
ASUS43 KLMK 271302
RWRKY
KENTUCKY REGIONAL WEATHER ROUNDUP
NATIONAL WEATHER SERVICE LOUISVILLE KY
900 AM EDT WED AUG 27 2014

NOTE "FAIR" INDICATES FEW OR NO CLOUDS BELOW 12,000 FEET
WITH NO SIGNIFICANT WEATHER AND/OR OBSTRUCTIONS TO VISIBILITY.

KYZ001>023-026-027-061>063-070>075-271400-
WESTERN AND SOUTH CENTRAL KENTUCKY

CITY           SKY/WX    TMP DP  RH WIND       PRES   REMARKS
PADUCAH        SUNNY     80  75  84 CALM      30.08S HAZE
HENDERSON      PTSUNNY  N/A N/A N/A MISG        N/A
OWENSBORO      SUNNY     78  75  90 CALM      30.10R FOG
HOPKINSVILLE   SUNNY     76  76 100 SW3       30.10S
BOWLING GREEN  FOG       73  72  96 CALM      30.11R VSB 1/2
GLASGOW        SUNNY     72  70  93 CALM      30.12R
$$

KYZ024-025-028>034-038-045-046-053-271400-
NORTH CENTRAL KENTUCKY

CITY           SKY/WX    TMP DP  RH WIND       PRES   REMARKS
LOUISVILLE/SDF MOSUNNY   78  71  79 CALM      30.10S HAZE
LOUISVILLE/LOU SUNNY     77  71  82 CALM      30.11R
FORT KNOX      SUNNY     75  75 100 CALM      30.11S
$$

KYZ035>037-039>044-047>052-055>060-089>105-271400-
NORTHEAST KENTUCKY

CITY           SKY/WX    TMP DP  RH WIND       PRES   REMARKS
LEXINGTON      SUNNY     74  67  78 S3        30.14R
COVINGTON      MOSUNNY   76  71  85 CALM      30.11S
FRANKFORT      SUNNY     74  68  81 CALM      30.11R
$$

KYZ054-064>069-076>088-106>120-271400-
SOUTHEAST KENTUCKY

CITY           SKY/WX    TMP DP  RH WIND       PRES   REMARKS
JACKSON        SUNNY     68  63  84 CALM      30.15R
LONDON         SUNNY     69  64  84 CALM      30.15R
SOMERSET       SUNNY     68  64  88 CALM      30.15S
MIDDLESBORO    CLOUDY    63  63  99 CALM      30.17R FOG
MONTICELLO     SUNNY     69  66  90 CALM      30.15R
$$




USA.gov is the U.S. government's official web portal to all federal, state and local government web resources and services.